Location: Lombard
(41.8800°N, 88.0080°W)
Time: 00:19:04
(UTC-05:00)

Tiros 1 - Pass Details

Date: 03 February 2023
Orbit: 628 x 662 km, 48.4° (Epoch: 20 March)

Event Time Altitude Azimuth Distance (km) Brightness Sun altitude
Rises 02:47:13 0° 280° (W) 2,917 - -47.2°
Reaches altitude 10° 02:49:41 10° 289° (WNW) 2,014 - -46.8°
Maximum altitude 02:53:58 37° 357° (N) 1,000 - -46.1°
Drops below altitude 10° 02:58:19 10° 65° (ENE) 2,033 - -45.3°
Exits shadow 02:59:32 - 70° (ENE) 2,474 10.8 -45.1°
Sets 03:00:49 0° 74° (ENE) 2,949 11.3 -44.9°
